Weather History for Cherokee, IA

Change the Weather History Date:

Tuesday, April 3, 2012

  Actual Average Record
Temperature  
Mean Temperature 58 °F -  
Max Temperature 65 °F 52 °F 85 °F (1981)
Min Temperature 52 °F 29 °F -8 °F (1975)
Degree Days  
Heating Degree Days 6    
Growing Degree Days 8 (Base 50)    
Moisture  
Dew Point 40 °F    
Average Humidity 55    
Maximum Humidity 73    
Minimum Humidity 30    
Precipitation  
Precipitation 0.00 in - - ()
Sea Level Pressure  
Sea Level Pressure 29.96 in    
Wind  
Wind Speed 12 mph (NNE)    
Max Wind Speed 21 mph    
Max Gust Speed 29 mph    
Visibility 10 miles    
Events      
Averages and records for this station are not official NWS values.
T = Trace of Precipitation, MM = Missing Value Source: NWS Daily Summary

Daily Weather History Graph

Daily Weather History Graph

Search for Another Location

Airport:

Trip Planner

Search our weather history database for the weather conditions in past years. The results will help you decide how hot, cold, wet, or windy it might be!

Date:

Astronomy

Apr. 03, 2012 Rise Set
Actual Time 7:00 AM CDT 7:51 PM CDT
Civil Twilight 6:31 AM CDT 8:19 PM CDT
Nautical Twilight 5:57 AM CDT 8:54 PM CDT
Astronomical Twilight 5:22 AM CDT 9:29 PM CDT
Moon 4:32 PM CDT (4/3) 4:53 AM CDT (4/3)
Length of Visible Light 13h 48m
Length of Day
12h 51m
Waxing Gibbous, 87% of the Moon is Illuminated
Apr 3
Waxing Gibbous
Apr 6
Full
Apr 13
Last Quarter
Apr 21
New
Apr 29
First Quarter

Hourly Weather History & Observations

Time (CDT) Temp. Dew Point Humidity Pressure Visibility Wind Dir Wind Speed Gust Speed Precip Events Conditions
12:15 AM 58.3 °F 45.1 °F 62% 29.77 in 10.0 mi North 9.2 mph - N/A   Clear
12:35 AM 57.6 °F 44.8 °F 62% 29.79 in 10.0 mi NNW 9.2 mph 16.1 mph N/A   Clear
12:55 AM 57.0 °F 44.8 °F 64% 29.79 in 10.0 mi NNW 9.2 mph - N/A   Clear
1:15 AM 55.9 °F 44.8 °F 66% 29.80 in 10.0 mi NNW 11.5 mph 16.1 mph N/A   Clear
1:35 AM 55.4 °F 44.2 °F 66% 29.80 in 10.0 mi North 10.4 mph 16.1 mph N/A   Clear
1:55 AM 55.2 °F 43.9 °F 66% 29.81 in 10.0 mi North 10.4 mph - N/A   Clear
2:15 AM 55.0 °F 43.7 °F 66% 29.83 in 10.0 mi NNW 9.2 mph - N/A   Clear
2:35 AM 54.5 °F 43.3 °F 66% 29.83 in 10.0 mi NNW 9.2 mph 18.4 mph N/A   Clear
3:15 AM 53.6 °F 43.7 °F 69% 29.85 in 10.0 mi North 11.5 mph - N/A   Clear
3:35 AM 53.2 °F 43.7 °F 70% 29.86 in 10.0 mi North 10.4 mph 18.4 mph N/A   Clear
3:55 AM 53.2 °F 43.3 °F 69% 29.88 in 10.0 mi North 10.4 mph 16.1 mph N/A   Clear
4:15 AM 53.2 °F 42.8 °F 68% 29.88 in 10.0 mi North 16.1 mph 21.9 mph N/A   Clear
4:35 AM 53.1 °F 42.1 °F 66% 29.89 in 10.0 mi North 11.5 mph 20.7 mph N/A   Clear
4:55 AM 53.1 °F 41.9 °F 66% 29.90 in 10.0 mi North 11.5 mph - N/A   Clear
5:15 AM 53.4 °F 41.9 °F 65% 29.90 in 10.0 mi North 9.2 mph - N/A   Mostly Cloudy
5:35 AM 54.7 °F 41.5 °F 61% 29.90 in 10.0 mi North 16.1 mph - N/A   Overcast
5:55 AM 55.9 °F 41.0 °F 57% 29.91 in 10.0 mi North 17.3 mph 21.9 mph N/A   Overcast
6:15 AM 55.4 °F 42.1 °F 61% 29.92 in 10.0 mi North 15.0 mph 24.2 mph N/A   Overcast
6:35 AM 54.5 °F 42.8 °F 65% 29.92 in 10.0 mi North 16.1 mph 25.3 mph N/A   Overcast
6:55 AM 54.0 °F 43.2 °F 67% 29.94 in 10.0 mi North 15.0 mph 24.2 mph N/A   Overcast
7:15 AM 53.1 °F 44.2 °F 72% 29.96 in 10.0 mi North 17.3 mph 23.0 mph N/A   Overcast
7:35 AM 53.1 °F 44.2 °F 72% 29.97 in 10.0 mi North 19.6 mph 25.3 mph N/A   Overcast
7:55 AM 52.9 °F 44.1 °F 72% 29.99 in 10.0 mi North 13.8 mph 24.2 mph N/A   Overcast
8:15 AM 52.9 °F 44.2 °F 72% 30.00 in 10.0 mi North 15.0 mph 20.7 mph N/A   Overcast
8:35 AM 52.9 °F 44.2 °F 72% 30.01 in 10.0 mi North 15.0 mph 18.4 mph N/A   Overcast
8:55 AM 52.9 °F 44.6 °F 73% 30.02 in 10.0 mi North 9.2 mph 23.0 mph N/A   Overcast
9:15 AM 53.6 °F 44.6 °F 72% 30.01 in 10.0 mi North 17.3 mph 25.3 mph N/A   Overcast
9:35 AM 54.5 °F 44.1 °F 68% 30.01 in 10.0 mi NNE 18.4 mph 28.8 mph N/A   Overcast
9:55 AM 55.4 °F 43.2 °F 63% 30.01 in 10.0 mi North 18.4 mph 25.3 mph N/A   Overcast
10:15 AM 54.9 °F 42.4 °F 63% 30.02 in 10.0 mi NNE 19.6 mph 26.5 mph N/A   Overcast
10:35 AM 55.4 °F 42.3 °F 61% 30.02 in 10.0 mi North 17.3 mph 24.2 mph N/A   Overcast
10:55 AM 55.4 °F 42.4 °F 62% 30.03 in 10.0 mi North 17.3 mph 26.5 mph N/A   Overcast
11:15 AM 55.6 °F 42.3 °F 61% 30.04 in 10.0 mi NNE 16.1 mph 25.3 mph N/A   Overcast
11:35 AM 56.7 °F 42.3 °F 59% 30.03 in 10.0 mi NNE 16.1 mph 24.2 mph N/A   Overcast
11:55 AM 57.0 °F 41.7 °F 57% 30.02 in 10.0 mi NE 18.4 mph 26.5 mph N/A   Overcast
12:15 PM 57.7 °F 41.5 °F 55% 30.01 in 10.0 mi NNE 18.4 mph 27.6 mph N/A   Overcast
12:55 PM 58.6 °F 41.7 °F 53% 30.01 in 10.0 mi NE 18.4 mph 26.5 mph N/A   Overcast
1:15 PM 58.5 °F 42.3 °F 55% 30.01 in 10.0 mi NNE 17.3 mph 26.5 mph N/A   Mostly Cloudy
1:35 PM 60.3 °F 42.1 °F 51% 30.00 in 10.0 mi NNE 15.0 mph 27.6 mph N/A   Mostly Cloudy
1:55 PM 60.3 °F 41.9 °F 51% 29.99 in 10.0 mi NNE 11.5 mph 25.3 mph N/A   Mostly Cloudy
2:15 PM 60.8 °F 41.5 °F 49% 30.00 in 10.0 mi NNE 15.0 mph 24.2 mph N/A   Overcast
2:35 PM 62.8 °F 41.2 °F 45% 29.99 in 10.0 mi NNE 16.1 mph 26.5 mph N/A   Mostly Cloudy
2:55 PM 63.5 °F 40.3 °F 43% 29.99 in 10.0 mi NNE 16.1 mph 23.0 mph N/A   Mostly Cloudy
3:15 PM 65.1 °F 40.1 °F 40% 29.99 in 10.0 mi NNE 17.3 mph 21.9 mph N/A   Mostly Cloudy
3:35 PM 64.6 °F 40.3 °F 41% 29.98 in 10.0 mi NNE 20.7 mph 27.6 mph N/A   Scattered Clouds
3:55 PM 64.6 °F 40.6 °F 42% 29.99 in 10.0 mi NE 13.8 mph 19.6 mph N/A   Mostly Cloudy
4:35 PM 65.3 °F 39.4 °F 39% 30.00 in 10.0 mi NNE 15.0 mph 20.7 mph N/A   Mostly Cloudy
4:55 PM 64.4 °F 39.2 °F 40% 30.00 in 10.0 mi NNE 11.5 mph 18.4 mph N/A   Mostly Cloudy
5:15 PM 64.4 °F 39.0 °F 39% 30.00 in 10.0 mi NNE 11.5 mph 17.3 mph N/A   Overcast
5:35 PM 64.4 °F 38.7 °F 39% 29.99 in 10.0 mi NE 12.7 mph 18.4 mph N/A   Overcast
5:55 PM 63.9 °F 37.8 °F 38% 29.99 in 10.0 mi NE 13.8 mph 21.9 mph N/A   Overcast
6:15 PM 63.7 °F 36.7 °F 37% 30.00 in 10.0 mi NE 11.5 mph 19.6 mph N/A   Overcast
6:35 PM 63.1 °F 34.3 °F 34% 30.01 in 10.0 mi NE 10.4 mph 17.3 mph N/A   Overcast
6:55 PM 62.8 °F 32.2 °F 32% 30.01 in 10.0 mi NE 10.4 mph - N/A   Overcast
7:15 PM 62.6 °F 31.5 °F 31% 30.01 in 10.0 mi NE 5.8 mph - N/A   Overcast
7:35 PM 62.1 °F 30.4 °F 30% 30.01 in 10.0 mi NE 9.2 mph - N/A   Overcast
8:15 PM 59.9 °F 29.3 °F 31% 30.01 in 10.0 mi NE 8.1 mph - N/A   Scattered Clouds
8:35 PM 58.8 °F 29.8 °F 33% 30.01 in 10.0 mi NE 5.8 mph - N/A   Scattered Clouds
8:55 PM 58.3 °F 30.0 °F 34% 30.01 in 10.0 mi NE 5.8 mph - N/A   Clear
9:15 PM 57.4 °F 30.2 °F 36% 30.01 in 10.0 mi NE 5.8 mph - N/A   Clear
9:35 PM 56.3 °F 31.1 °F 38% 30.01 in 10.0 mi NNE 4.6 mph - N/A   Clear
9:55 PM 54.3 °F 32.0 °F 43% 30.01 in 10.0 mi North 4.6 mph - N/A   Clear
10:15 PM 53.6 °F 32.0 °F 44% 30.00 in 10.0 mi NE 3.5 mph - N/A   Clear
10:35 PM 53.6 °F 32.2 °F 44% 30.01 in 10.0 mi NNE 4.6 mph - N/A   Clear
10:55 PM 52.3 °F 32.5 °F 47% 30.00 in 10.0 mi NNE 4.6 mph - N/A   Clear
11:15 PM 52.2 °F 33.3 °F 49% 30.02 in 10.0 mi North 4.6 mph - N/A   Mostly Cloudy
11:35 PM 52.2 °F 32.9 °F 48% 30.02 in 10.0 mi NNE 3.5 mph - N/A   Mostly Cloudy
11:55 PM 51.4 °F 33.1 °F 50% 30.01 in 10.0 mi NNE 3.5 mph - N/A   Scattered Clouds